Flag for China Weather past 2 weeks in Tsingtao, Shandong, China

Now
75 °F

Sunny.


Feels Like: 77 °F
Forecast: 66 / 77 °F
Wind: 13 mph from South

Location: Qingdao Airport

Current Time: Sep 21, 2014 at 6:03:30 PM

Latest Report: Sep 21, 2014 at 5:00 PM


Visibility: 10 mi

Pressure: 30.01 "Hg

Humidity: 65%

Dew point: 63 °F

Location of TsingtaoLocation

Historic Weather in Tsingtao — Graph

°F

Tsingtao temperature yesterday

Maximum temperature yesterday: 79 °F (at 1:00 PM)
Minimum temperature yesterday: 59 °F (at 5:00 AM)
Average temperature yesterday: 70 °F

Past Weeks' High & Low Weather Summary

 TemperatureHumidityPressure
High88 °F (Sep 8, 2:00 PM)94% (Sep 7, 4:00 AM)30.15 "Hg (Sep 7, 4:00 AM)
Low57 °F (Sep 19, 4:00 AM)18% (Sep 11, 12:00 PM)29.71 "Hg (Sep 8, 4:00 PM)
Average71 °F70%29.95 "Hg
* Reported Sep 6 5:00 PM — Sep 21 5:00 PM, Tsingtao, Weather by CustomWeather, © 2014

Note: Actual official high and low records may vary slightly from our data, if they occured in-between our weather recording intervals... More about our weather records

Advertising

Tsingtao weather history for previous 24 hours

 ConditionsComfort  
Time TempWeatherWind HumidityBarometerVisibility
5:00 PM
Sep 21
75 °FSunny.13 mph65%30.01 "Hg10 mi
4:00 PM77 °FSunny.13 mph61%30.01 "Hg10 mi
3:00 PM81 °FPassing clouds.10 mph54%29.98 "Hg5 mi
2:00 PM81 °FPassing clouds.8 mph48%29.98 "Hg5 mi
1:00 PM82 °FClear.3 mph45%30.01 "Hg5 mi
12:00 PM81 °FPassing clouds.3 mph48%30.01 "HgN/A
11:00 AM79 °FPassing clouds.3 mph54%30.04 "HgN/A
10:00 AM77 °FPassing clouds.3 mph61%30.04 "HgN/A
9:00 AM75 °FPassing clouds.3 mph65%30.04 "HgN/A
8:00 AM73 °FSunny.1 mph74%30.04 "Hg10 mi
7:00 AM68 °FClear.No wind88%30.01 "Hg4 mi
6:00 AM64 °FClear.1 mph88%30.01 "Hg4 mi
5:00 AM68 °FClear.3 mph88%29.98 "Hg10 mi
4:00 AM70 °FPassing clouds.6 mph83%29.98 "HgN/A
3:00 AM70 °FPassing clouds.6 mph83%29.98 "HgN/A
2:00 AM70 °FPassing clouds.6 mph83%29.95 "HgN/A
1:00 AM70 °FPassing clouds.8 mph83%29.95 "HgN/A
9:00 PM
Sep 20
70 °FClear.10 mph64%29.92 "Hg10 mi
8:00 PM70 °FClear.10 mph64%29.92 "Hg10 mi
7:00 PM70 °FClear.10 mph69%29.89 "Hg10 mi
6:00 PM72 °FClear.13 mph65%29.89 "Hg10 mi
Weather by CustomWeather, © 2014

See weather overviewHow to use our weather pages